Regional Weather Roundup
Issued by NWS New Orleans/Baton Rouge, LA

Home | Current Version | Previous Version | Text Only | Print | Product List | Glossary On
Versions: 1 2 3 4 5 6 7 8 9 10 11 12 13 14 15 16 17 18 19 20 21 22 23 24 25 26 27 28 29 30 31 32 33 34 35 36 37 38 39 40 41 42 43 44 45 46 47 48 49 50
000
ASUS44 KLIX 210213
RWRLIX
NEW ORLEANS REGIONAL WEATHER ROUNDUP
NATIONAL WEATHER SERVICE NEW ORLEANS LA
800 PM CST MON FEB 20 2017

NOTE: "FAIR" INDICATES FEW OR NO CLOUDS BELOW 12,000 FEET WITH NO
      SIGNIFICANT WEATHER AND/OR OBSTRUCTIONS TO VISIBILITY.
      SKY/WX - SKY CONDITION AND SIGNIFICANT WEATHER.
      TMP - AIR TEMPERATURE.     DP    - DEWPOINT TEMPERATURE.
      RH  - RELATIVE HUMIDITY.   PRES  - PRESSURE.
      HI  - HEAT INDEX.          WCI   - WIND CHILL INDEX.

*  THESE STATIONS ARE NOT NWS OR FAA STATIONS AND ARE NOT UNDER
   NWS QUALITY CONTROL.

LAZ038-040-048-061>063-065>067-069-210300-
SOUTHEAST LOUISIANA

CITY           SKY/WX    TMP DP  RH WIND       PRES   REMARKS
N.O. AUDUBON   NOT AVBL
N.O. INTL ARPT CLOUDY    72  68  87 SE16      29.95F
N.O. LAKEFRONT CLOUDY    71  68  90 SE15      29.97F
N.O. DOWNTOWN*   N/A     71  68  90 VRB5      29.97F
RESERVE*       CLOUDY    73  70  89 SE15G21   29.93F
SLIDELL        CLOUDY    71  65  81 SE10      29.98S
BATON ROUGE    HVY RAIN  63  60  90 W23G32    29.93R FOG
BOOTHVILLE     CLOUDY    68  68 100 SE9       29.99F
BELLE CHASSE   CLOUDY    71  68  90 SE12      29.96S
BOGALUSA*      CLOUDY    71  62  72 SE9G16    30.00S
GALLIANO*      CLOUDY    72  67  87 SE10G18   29.96S
NEW ROADS*     HVY RAIN  59  58  96 NW17      29.95F
GONZALES*      CLOUDY    71  70  95 SE9       29.91S
HAMMOND*       CLOUDY    70  63  78 SE15      29.95S
HOUMA*         HVY RAIN  71  70  97 SE20G25   29.94S
PORT FOURCHON* MOCLDY    70  68  94 SE16      29.96S

$$

MSZ070-080>082-210300-
SOUTHERN MISSISSIPPI

CITY           SKY/WX    TMP DP  RH WIND       PRES   REMARKS
MCCOMB         CLOUDY    70  62  76 SE15G21   29.96R
GULFPORT       MOCLDY    69  65  86 E17       30.00F
BILOXI         MOCLDY    69  65  87 SE16      30.00F
PASCAGOULA     PTCLDY    68  64  87 SE9       30.03F
STENNIS ARPT*  MOCLDY    68  63  83 SE9       30.00S

$$

COASTAL OBSERVATIONS
LAKE AND NEARSHORE STATIONS

STATION/POSITION TIME  TEMP    WIND        PRES    WAVE
                       AIR SEA DIR/SP/G            HT/PER
                 (UTC) (F)     (DEG/KT/KT) (MB)    (FT/S)
PASCAGOULA       0148   68     110/ 14/ 16 1016.2
WAVELAND YACHT   0148   68 66  120/ 11/ 14 1015.4
GRAND ISLE       0148   70 68  140/ 12/ 15 1014.9
SOUTHWEST PASS   0142          140/ 16/ 18   N/A
NEW CANAL        0148   71 66  150/  6/ 10 1013.8
SHELL BEACH      0148   70 69  120/ 18/ 20 1015.2

OFFSHORE STATIONS

STATION/POSITION TIME  TEMP    WIND        PRES    WAVE
                       AIR SEA DIR/SP/G            HT/PER
                 (UTC) (F)     (DEG/KT/KT) (MB)    (FT/S)

$$




USA.gov is the U.S. government's official web portal to all federal, state and local government web resources and services.